Overview Statistics Trail Chart Weather Telemetry Raw packets
 

This is the latest recevied weather packets stored in our database for station/object LU3HGB-WX. If no packets are shown the sender has not sent any weather packets the latest 10 day(s).

<< 16 17 18 19 20 21 22 >>
Time Temp. Humidity Pressure Rain* Wind** Luminosity Snow
1788567759 10.56° C 42% 1020 hPa 0 mm - 0 W/m² -
1788567459 11.11° C 44% 1020 hPa 0 mm - 0 W/m² -
1788567159 11.67° C 39% 1020 hPa 0 mm - 0 W/m² -
1788566860 11.67° C 39% 1019 hPa 0 mm - 0 W/m² -
1788566560 12.22° C 37% 1019 hPa 0 mm - 0 W/m² -
1788566259 12.22° C 38% 1019 hPa 0 mm - 0 W/m² -
1788565959 12.22° C 36% 1019 hPa 0 mm - 0 W/m² -
1788565675 11.67° C 39% 1019 hPa 0 mm - 0 W/m² -
1788565359 12.22° C 41% 1019 hPa 0 mm - 0 W/m² -
1788565059 12.78° C 37% 1019 hPa 0 mm - 0 W/m² -
1788564759 13.33° C 33% 1019 hPa 0 mm - 0 W/m² -
1788564459 13.33° C 35% 1019 hPa 0 mm - 0 W/m² -
1788564159 13.89° C 33% 1019 hPa 0 mm - 0 W/m² -
1788563883 13.89° C 32% 1019 hPa 0 mm - 0 W/m² -
1788563565 13.89° C 31% 1019 hPa 0 mm - 0 W/m² -
1788563259 13.33° C 36% 1019 hPa 0 mm - 0 W/m² -
1788562959 13.89° C 38% 1019 hPa 0 mm - 0 W/m² -
1788562659 13.89° C 36% 1019 hPa 0 mm - 0 W/m² -
1788562359 13.89° C 37% 1018 hPa 0 mm - 0 W/m² -
1788562059 14.44° C 37% 1018 hPa 0 mm - 0 W/m² -
1788561761 14.44° C 37% 1018 hPa 0 mm - 0 W/m² -
1788561459 14.44° C 37% 1018 hPa 0 mm - 0 W/m² -
1788561159 14.44° C 37% 1018 hPa 0 mm - 0 W/m² -
1788560859 14.44° C 35% 1018 hPa 0 mm - 0 W/m² -
1788560559 15° C 35% 1018 hPa 0 mm - 0 W/m² -

* Rain latest hour (hover to see other rain measurements)
** Current wind speed in m/s (hover to see current wind gust speed)